DW2802 Ogijares ES current weather conditions

sailwx.info

Wind from 186 at 5 knots gusting 13

Air temperature 23.9° C
Dewpoint 15.1° C

Last reported at 2014-Oct-02 15:42 UTC.
Time now 2014-Oct-02 16:38 UTC

Location: N 37°07' W 003°36'.
View on Google Maps.

See reports from other nearby stations

  
Tides and Currents Weather Stations Pressure Air Temp Water Temp Dewpoint Dewpoint Depression Visibility Wind Speed Wind Dir Waves Ship Positions
date/time (UTC)wind fromknots sea level pressurealtimeterstation pressurevisibilityair tempwater tempwave heightnotes
2014-Oct-02 15:42 186 5 gusting 13 23.9
2014-Oct-02 15:27 209 2 gusting 8 24.4
2014-Oct-02 15:12 165 6 gusting 11 24.4
2014-Oct-02 14:57 195 7 gusting 12 25.0
2014-Oct-02 14:42 210 4 gusting 10 25.6
2014-Oct-02 14:27 225 5 gusting 9 25.6
2014-Oct-02 14:12 167 2 gusting 6 26.1
2014-Oct-02 13:57 040 4 gusting 7 26.1
2014-Oct-02 13:42 355 3 gusting 6 25.0
2014-Oct-02 13:27 331 2 gusting 5 25.0
2014-Oct-02 13:12 246 25.6
2014-Oct-02 12:57 225 24.4
2014-Oct-02 12:42 246 2 gusting 6 23.3
2014-Oct-02 12:27 248 2 gusting 6 23.3
2014-Oct-02 12:12 194 23.9
2014-Oct-02 11:57 273 0 gusting 2 23.3
2014-Oct-02 11:42 301 22.8
2014-Oct-02 11:27 329 22.8
2014-Oct-02 11:12 325 1 gusting 4 22.8
2014-Oct-02 10:57 325 21.7
2014-Oct-02 10:41 325 20.6
2014-Oct-02 10:26 325 20.6
2014-Oct-02 10:11 328 21.1
2014-Oct-02 09:56 328 20.6
2014-Oct-02 09:41 327 19.4
2014-Oct-02 09:26 327 1 gusting 6 18.9
2014-Oct-02 09:11 232 18.3
2014-Oct-02 08:56 219 1 gusting 4 18.3
2014-Oct-02 08:41 194 18.3
2014-Oct-02 08:26 195 17.8
2014-Oct-02 08:11 195 0 gusting 4 17.8
2014-Oct-02 07:56 195 4 gusting 6 17.2
2014-Oct-02 07:41 190 3 gusting 6 16.7
2014-Oct-02 07:26 194 16.1
2014-Oct-02 07:12 194 16.1
2014-Oct-02 06:56 193 1 gusting 6 15.0
2014-Oct-02 06:41 190 15.0
2014-Oct-02 06:26 190 15.0
2014-Oct-02 06:11 190 15.0
2014-Oct-02 05:56 190 15.0
2014-Oct-02 04:41 195 16.1
2014-Oct-02 04:26 195 16.1
2014-Oct-02 04:11 195 16.1
2014-Oct-02 03:56 195 16.1
2014-Oct-02 03:41 195 16.1
2014-Oct-02 03:26 195 16.7
2014-Oct-02 03:10 195 16.7
2014-Oct-02 02:55 195 16.7
2014-Oct-02 02:40 195 16.7
2014-Oct-02 02:25 200 16.7
2014-Oct-02 02:10 194 16.7
2014-Oct-02 01:55 194 16.7
2014-Oct-02 01:40 194 17.2
2014-Oct-02 01:25 194 17.2
2014-Oct-02 01:10 195 17.2
2014-Oct-02 00:55 195 17.2
2014-Oct-02 00:40 195 17.2
2014-Oct-02 00:25 195 17.2
2014-Oct-02 00:10 140 17.2
2014-Oct-01 23:55 140 17.8
2014-Oct-01 23:40 140 17.8
2014-Oct-01 23:25 140 18.3
2014-Oct-01 23:10 140 18.3
2014-Oct-01 22:55 140 18.3
2014-Oct-01 22:40 140 18.9
2014-Oct-01 22:25 140 18.9
2014-Oct-01 22:10 139 18.9
2014-Oct-01 21:55 139 19.4
2014-Oct-01 21:40 139 19.4
2014-Oct-01 21:25 139 19.4
2014-Oct-01 21:10 139 19.4
2014-Oct-01 20:55 139 19.4
2014-Oct-01 20:40 138 20.0
2014-Oct-01 20:25 128 20.6
2014-Oct-01 20:10 129 1 gusting 4 21.1
2014-Oct-01 19:55 084 2 gusting 6 21.7
2014-Oct-01 19:40 344 21.1
2014-Oct-01 19:25 265 21.1
2014-Oct-01 19:10 265 21.1
2014-Oct-01 18:55 265 21.7
2014-Oct-01 18:40 260 21.7
2014-Oct-01 18:25 261 22.2
2014-Oct-01 18:10 296 22.8
2014-Oct-01 17:55 305 23.3
2014-Oct-01 17:40 305 24.4
2014-Oct-01 17:25 305 25.0
2014-Oct-01 17:10 306 25.6
2014-Oct-01 16:55 317 0 gusting 4 26.1
2014-Oct-01 16:40 325 0 gusting 2 26.1
2014-Oct-01 16:25 326 0 gusting 2 26.1
2014-Oct-01 16:10 327 0 gusting 4 26.1
2014-Oct-01 15:55 307 26.7
2014-Oct-01 15:40 294 1 gusting 6 26.1
2014-Oct-01 15:25 315 2 gusting 7 26.1
2014-Oct-01 15:10 306 4 gusting 8 25.6
2014-Oct-01 14:55 325 6 gusting 8 25.6
2014-Oct-01 14:40 302 3 gusting 7 25.6
2014-Oct-01 14:25 286 0 gusting 3 24.4
2014-Oct-01 14:10 290 24.4
2014-Oct-01 13:55 323 24.4
2014-Oct-01 13:40 312 2 gusting 7 24.4
2014-Oct-01 13:25 243 0 gusting 5 24.4
2014-Oct-01 13:10 054 3 gusting 8 24.4
2014-Oct-01 12:55 346 3 gusting 6 24.4
2014-Oct-01 12:40 011 1 gusting 7 23.9
2014-Oct-01 12:25 300 1 gusting 5 23.9
2014-Oct-01 12:10 341 3 gusting 8 23.9
2014-Oct-01 11:55 355 24.4
2014-Oct-01 11:39 304 23.9
2014-Oct-01 11:24 301 0 gusting 6 22.8
2014-Oct-01 11:09 342 22.2
2014-Oct-01 10:54 334 21.7
2014-Oct-01 10:39 336 21.7
2014-Oct-01 10:24 317 1 gusting 5 21.1
2014-Oct-01 10:09 025 20.6
2014-Oct-01 09:54 054 20.0
2014-Oct-01 09:39 054 18.9
2014-Oct-01 09:24 054 2 gusting 5 18.9
2014-Oct-01 09:09 315 18.9
2014-Oct-01 08:54 315 18.3
2014-Oct-01 08:39 315 18.3
2014-Oct-01 08:24 315 18.3
2014-Oct-01 08:09 315 17.8
2014-Oct-01 07:54 172 17.8
2014-Oct-01 07:39 174 17.2
2014-Oct-01 07:24 174 16.7
2014-Oct-01 07:09 174 16.7
2014-Oct-01 06:54 174 16.7
2014-Oct-01 06:39 174 16.7
2014-Oct-01 06:23 174 16.7
2014-Oct-01 06:08 174 16.7
2014-Oct-01 05:53 173 16.7
2014-Oct-01 05:38 173 17.2
2014-Oct-01 05:23 173 17.2
2014-Oct-01 05:08 188 16.7
2014-Oct-01 04:53 188 17.2
2014-Oct-01 04:38 188 1 gusting 6 17.2
2014-Oct-01 04:23 173 5 gusting 8 17.2
2014-Oct-01 04:08 184 1 gusting 6 17.2
2014-Oct-01 03:53 194 17.2
2014-Oct-01 03:38 215 17.2
2014-Oct-01 03:23 321 17.2
2014-Oct-01 03:08 322 17.2
2014-Oct-01 02:53 340 2 gusting 5 17.2
2014-Oct-01 02:38 005 2 gusting 5 17.8
2014-Oct-01 02:23 196 17.8
2014-Oct-01 02:08 196 17.2
2014-Oct-01 01:53 196 17.2
2014-Oct-01 01:38 146 17.2
2014-Oct-01 01:23 073 17.2
2014-Oct-01 01:08 073 17.8
2014-Oct-01 00:53 073 17.8
2014-Oct-01 00:38 073 17.8
2014-Oct-01 00:23 073 17.8
2014-Oct-01 00:08 073 17.8
2014-Sep-30 23:53 073 17.8
2014-Sep-30 23:38 073 17.8
2014-Sep-30 23:23 073 17.8
2014-Sep-30 23:08 071 17.8
2014-Sep-30 22:53 071 17.8
2014-Sep-30 22:38 071 18.3
2014-Sep-30 22:23 071 18.3
2014-Sep-30 22:08 072 18.3
2014-Sep-30 21:53 072 18.3
2014-Sep-30 21:38 072 18.9
2014-Sep-30 21:23 052 19.4
2014-Sep-30 21:08 051 19.4
2014-Sep-30 20:53 051 3 gusting 7 20.0
2014-Sep-30 20:38 072 0 gusting 4 20.0
2014-Sep-30 20:23 113 20.0
2014-Sep-30 20:08 179 20.0
2014-Sep-30 19:53 192 20.0
2014-Sep-30 19:38 192 20.0
2014-Sep-30 19:23 192 20.0
2014-Sep-30 19:08 173 20.6
2014-Sep-30 18:53 171 20.6
2014-Sep-30 18:38 171 21.1
2014-Sep-30 18:23 155 2 gusting 6 21.1
2014-Sep-30 18:08 151 1 gusting 7 21.1
2014-Sep-30 17:53 155 2 gusting 8 21.7
2014-Sep-30 17:38 156 0 gusting 6 21.7
2014-Sep-30 17:23 182 3 gusting 11 22.2
2014-Sep-30 17:08 179 4 gusting 10 22.2
2014-Sep-30 16:53 194 6 gusting 11 22.8
2014-Sep-30 16:38 196 6 gusting 9 23.3
2014-Sep-30 16:23 196 3 gusting 8 23.3
2014-Sep-30 16:08 173 5 gusting 9 23.3